Weather History for KPKD - February, 2013

Change the Weather History Date:

Tuesday, February 5, 2013

  Actual Average Record
Temperature  
Mean Temperature 16 °F -  
Max Temperature 23 °F 18 °F 48 °F (1963)
Min Temperature 9 °F -4 °F -42 °F (1982)
Degree Days  
Heating Degree Days 49    
Moisture  
Dew Point 7 °F    
Average Humidity 73    
Maximum Humidity 89    
Minimum Humidity 45    
Precipitation  
Precipitation 0.00 in - - ()
Sea Level Pressure  
Sea Level Pressure 29.86 in    
Wind  
Wind Speed 9 mph (NNW)    
Max Wind Speed 16 mph    
Max Gust Speed -    
Visibility 8 miles    
Events Snow    
Averages and records for this station are not official NWS values.
T = Trace of Precipitation, MM = Missing Value Source: NWS Daily Summary

Daily Weather History Graph

Daily Weather History Graph

Search for Another Location

Airport or City:

Trip Planner

Search our weather history database for the weather conditions in past years. The results will help you decide how hot, cold, wet, or windy it might be!

Date:

Astronomy

Feb. 05, 2013 Rise Set
Actual Time 7:39 AM CST 5:30 PM CST
Civil Twilight 7:07 AM CST 6:02 PM CST
Nautical Twilight 6:31 AM CST 6:38 PM CST
Astronomical Twilight 5:55 AM CST 7:13 PM CST
Moon 3:29 AM CST (2/5) 12:40 PM CST (2/5)
Length of Visible Light 10h 54m
Length of Day
9h 50m
Waning Crescent, 26% of the Moon is Illuminated
Feb 5
Waning Crescent
Feb 10
New
Feb 17
First Quarter
Feb 25
Full
Mar 4
Last Quarter

Hourly Weather History & Observations

Time (CST) Temp. Windchill Dew Point Humidity Pressure Visibility Wind Dir Wind Speed Gust Speed Precip Events Conditions
12:38 AM 15.8 °F 8.6 °F 12.2 °F 86% 29.54 in 10.0 mi SSW 4.6 mph - N/A   Overcast
12:53 AM 18.0 °F 6.9 °F 14.0 °F 84% 29.62 in 9.0 mi SW 9.2 mph - N/A   Overcast
1:53 AM 19.0 °F 7.5 °F 16.0 °F 88% 29.62 in 9.0 mi WSW 10.4 mph - N/A   Overcast
2:53 AM 19.9 °F 11.1 °F 17.1 °F 89% 29.62 in 9.0 mi West 6.9 mph - N/A   Overcast
3:53 AM 23.0 °F 10.6 °F 19.9 °F 88% 29.63 in 8.0 mi West 13.8 mph - N/A   Overcast
4:53 AM 23.0 °F 9.6 °F 19.9 °F 88% 29.65 in 9.0 mi NW 16.1 mph - N/A   Overcast
5:53 AM 21.0 °F 8.1 °F 18.0 °F 88% 29.70 in 9.0 mi NNW 13.8 mph - N/A   Overcast
6:53 AM 18.0 °F 4.2 °F 14.0 °F 84% 29.76 in 10.0 mi NNW 13.8 mph - N/A   Overcast
7:53 AM 14.0 °F -0.8 °F 9.0 °F 80% 29.82 in 6.0 mi NNW 13.8 mph - 0.00 in Snow Light Snow
8:23 AM 12.2 °F -1.0 °F 8.6 °F 85% 29.75 in 2.5 mi North 10.4 mph - 0.00 in Snow Light Snow
8:36 AM 12.2 °F -3.1 °F 6.8 °F 79% 29.77 in 5.0 mi North 13.8 mph - 0.00 in Snow Light Snow
8:47 AM 12.2 °F -2.5 °F 6.8 °F 79% 29.78 in 1.8 mi North 12.7 mph - 0.00 in Snow Light Snow
8:53 AM 12.2 °F -2.5 °F 6.8 °F 79% 29.78 in 1.8 mi North 12.7 mph - N/A Snow Light Snow
9:01 AM 12.2 °F -1.0 °F 6.8 °F 79% 29.79 in 3.0 mi North 10.4 mph - 0.00 in Snow Light Snow
9:27 AM 10.4 °F -4.8 °F 3.2 °F 73% 29.81 in 10.0 mi North 12.7 mph - 0.00 in   Scattered Clouds
9:53 AM 10.9 °F -2.6 °F 3.0 °F 70% 29.93 in 10.0 mi North 10.4 mph - 0.00 in   Clear
10:53 AM 12.0 °F 0.5 °F 3.0 °F 67% 29.96 in 10.0 mi North 8.1 mph - N/A   Clear
11:53 AM 14.0 °F 2.9 °F 3.0 °F 62% 29.98 in 10.0 mi NNW 8.1 mph - N/A   Clear
12:53 PM 16.0 °F 5.3 °F 3.9 °F 59% 29.98 in 10.0 mi North 8.1 mph - N/A   Clear
1:53 PM 16.0 °F 6.3 °F 5.0 °F 62% 30.00 in 10.0 mi NW 6.9 mph - N/A   Clear
2:53 PM 18.0 °F 9.8 °F 3.0 °F 52% 29.99 in 10.0 mi NNW 5.8 mph - N/A   Mostly Cloudy
3:53 PM 16.0 °F 4.4 °F 3.0 °F 57% 30.01 in 10.0 mi NW 9.2 mph - N/A   Clear
4:53 PM 17.1 °F 7.6 °F -0.9 °F 45% 30.02 in 10.0 mi North 6.9 mph - N/A   Overcast
5:53 PM 15.1 °F 7.7 °F 1.9 °F 56% 30.04 in 10.0 mi North 4.6 mph - N/A   Overcast
6:53 PM 9.0 °F -0.9 °F -0.9 °F 64% 30.06 in 10.0 mi NNW 5.8 mph - N/A   Mostly Cloudy
7:53 PM 9.0 °F - 1.0 °F 70% 30.06 in 10.0 mi Calm Calm - N/A   Overcast
8:53 PM 10.9 °F - 1.9 °F 67% 30.06 in 10.0 mi Calm Calm - N/A   Overcast
9:53 PM 10.9 °F - 3.9 °F 73% 30.07 in 10.0 mi Calm Calm - N/A   Overcast
10:53 PM 10.9 °F - 3.9 °F 73% 30.07 in 10.0 mi Calm Calm - N/A   Overcast
11:53 PM 10.9 °F - 3.9 °F 73% 30.08 in 10.0 mi Calm Calm - N/A   Overcast